COSMOS 1275 DEB, 18637

Orbit data source: Space-Track

COSMOS 1275 DEB, 18637 is space debris in LEO originally from a launch on Thu, 04 Jun 1981 UTC launched from the Plesetsk Missile And Space Complex (PKMTR). Debris objects in space refer to the collection of defunct objects orbiting the Earth. Examples of debris include non-operational satellites, rocket bodies, and fragments generated from explosions, collisions, or faulty payload assembly.

Loading next visibility...
Identifier
18637, 1981-053LX
Orbit
LEO
Country
Flag of CISCIS
Related business
Manufacturer
Unknown
Mission
Spacecraft
Bus & Motor
Unknown
Mass
Unknown
Launch date (UTC)
1981-06-04 (45 years ago)
Launch vehicle
Unknown
Launch site
Plesetsk Missile And Space Complex (PKMTR)
Object type
Payload
Rocket body
Debris
Shape & HBR
Unknown shape, 0.1 m
Radar Cross Section
Small (<0.1 m²)

Expand to show TLE details & history
Last TLE update: 2 days ago

TLE from 2 days ago
0 COSMOS 1275 DEB
1 18637U 81053LX  26035.64526281  .00004919  00000-0  20592-2 0  9995
2 18637  82.9636  11.2153 0047991 169.7205 190.4973 14.25274030 78325
Epoch: 2026-02-04T15:29Z
TLE epoch observation values (Epoch: 2026-02-04T15:29:10.706Z)
Latitude
-0.00002°
Longitude
4.11182°
Altitude
844.462 km
Speed
7.413 km/s
True Right ascension
00h 44m 51s
True Declination
0° 00' 00"
Sunlit
Object was in daylight at epoch
Visualization orbit readout
Latitude
Unknown
Longitude
Unknown
Altitude
Unknown
Speed
Unknown
Apparent Right ascension
Unknown
Apparent Declination
Unknown
Sunlit
N/A
Visualization observer readout
Local Sidereal Time
17:22:20
Azimuth
Unknown
Elevation
Unknown
Doppler factor
Unknown
Orbital elements
Apogee altitude
839.121 km
Perigee altitude
770.179 km
Semi-major axis
7,182.787 km
Eccentricity
0.0048
Inclination
82.9636°
RAAN
11.2153°
Arg. of periapsis
169.7205°
True anomaly
190.3977°
Mean anomaly
190.4973°
Eccentric anomaly
190.44744°
Mean motion
3.56536 °/min
Orbital period
100.97 mins
BSTAR
0.0020592
Loading maneuver chart data...
Computing Atmospheric mass density...
Loading historical data...
Loading historical data...
Loading historical data...
Loading historical data...
Loading historical data...
Loading historical data...
Loading historical data...

Documentation

Showing up to 5 results
|